Find Starlink 11712

NORAD ID: 64135 Int'l Des: 2025-111 Owner: SPXS Country: US Constellation: starlink operational
LEOCIRCULAR

Live Position

Loading 3D Globe...

About Starlink 11712

Description loading...

Upcoming Passes

Passes for default location (London). Set your location on the main map for personalized predictions.

Altitude History

Loading altitude history...

Two-Line Element Set

1 64135U 25111N 26104.16247492 .00015638 00000-0 12509-3 0 9990
2 64135 43.0001 120.4240 0001204 244.5150 115.5593 15.70847852 52216
Epoch: Apr 14, 2026 • Age: 6 hours

Current Status

Altitude 368.6 km
Velocity 7.69 km/s
Sub-Earth Point -42.31°S, 28.83°E
Launch Date May 24, 2025
Age 0.8 years
Type internet

Technical Details

Classification Payload
Mass 960.00 kg
Dry Mass 910.00 kg
Total Mass 960.00 kg
Length 0.30 m
Diameter 4.10 m
Span 29.00 m
Shape Box + pan
Manufacturer SPXS
Bus Type Starlink V2MD
Phase Status In Orbit
Owner/State SPXS/US

Most Searched